Location: Breitenfeld
(46.8500°N, 15.6333°E)
Time: 13:24:08
(UTC+00:00)

Cosmos 1726 Rocket - Pass Details

Date: 09 April 2020
Orbit: 602 x 631 km, 82.5° (Epoch: 02 June)

Event Time Altitude Azimuth Distance (km) Brightness Sun altitude
Rises 18:55:33 0° 199° (SSW) 2,885 6.9 -13.2°
Reaches altitude 10° 18:57:48 10° 203° (SSW) 1,988 6.1 -13.6°
Maximum altitude 19:02:08 56° 282° (WNW) 753 4.3 -14.2°
Drops below altitude 10° 19:06:32 10° 1° (N) 2,018 6.6 -14.9°
Sets 19:08:50 0° 6° (N) 2,933 7.4 -15.2°
